Weather in Chernyshev

Russia / Republic of Adygea     45°02′58″N   40°02′04″E
temp.,
°C
wind,
m/s
gust,
m/s
humid.,
%
clouds,
%
prec.,
mm/h
press.,
hPa
HPBL,
m
9 may, sun
sun900:00+16wsw4880100 0.1 1008129
03:00+14w61277100 0.1 1010466
06:00+14wsw71393100 0.7 1010608
09:00+10nw81394100 1.9 1013676
12:00+8wnw61094100 3.3 10161050
15:00+9wnw6884100 6.9 10191049
18:00+10wnw4884100 1.0 1021784
21:00+7wsw478915 1.3 1022117
10 may, mon
mon1000:00+7sw51189100 0.0 1023268
03:00+6wsw499075 0.1 1023214
06:00+5wsw479268 0.1 1024177
09:00+10wnw577134 0.8 1023984
12:00+12wnw6860100 1.0 10221709
15:00+12wnw71063100 1.9 10211692
18:00+9nw6977100 0.8 1021575
21:00+8wsw41282100 0.8 1020390
11 may, tue
tue1100:00+8sw81474100 0.4 10171044
03:00+7sw111988100 2.6 10151274
06:00+7sw122092100 5.2 10151351
09:00+8sw111992100 12.4 10151426
12:00+11sw121977100 2.4 10151658
15:00+14sw10156584 2.5 10161885
18:00+11wsw61271100 0.3 1017609
21:00+9w3781100 0.6 1018257
12 may, wed
wed1200:00+8ene2391100 0.1 101864
03:00+8e3794100 0.1 1018305
06:00+8e489582 0.0 1018373
09:00+12e447936 0.0 1017601
12:00+17e44675 0.0 1016956
15:00+19e455975 0.0 10151135
18:00+19ene36750 0.0 1015212
21:00+13e410890 0.0 1014166
13 may, thu
thu1300:00+11e410915 0.0 1014151
03:00+10ese36936 0.0 101379
06:00+11e478423 0.0 1013108
09:00+19e576851 0.0 1013287
12:00+24e686162 0.0 1012565
15:00+25e69677 0.0 1012702
18:00+22e5117770 0.0 1012344
21:00+17e513900 0.0 1012233